sat.trackr.live / text

‹ back to catalog

STARLINK-36143

NORAD 67056 · 2025-294AC

PAYLOAD ACTIVE UNKNOWN

§ Identity

Operator
Country
US
Launch date
2025-12-11
Launch site
AFETR
Launch vehicle
Mass (kg)
RCS (m²)

Purposes: comms

External: N2YO · Heavens-Above · Gunter

§ Orbital elements

Epoch: 2026-05-24T21:12:48.885696Z

Period
94.27 min
Inclination
43.0008°
Eccentricity
0.0001212
Mean motion
15.27595862 rev/d
Perigee alt
482.2 km
Apogee alt
483.8 km
Semi-major
6,861.1 km
B*
5.9077e-4
RAAN
327.6390°
Arg perigee
272.1511°
Mean anomaly
87.9202°
Rev number
2,645

§ Raw data

STARLINK-361431 67056U 25294AC  26144.88389914  .00016038  00000+0  59077-3 0  99912 67056  43.0008 327.6390 0001212 272.1511  87.9202 15.27595862 26451

JSON: /api/v1/satellites/67056 · /tle

For live sub-satellite position, see the globe view (requires WebGL).

§ Visibility from observer

Set your observer location to see the next 7 days of passes ≥ 10°. The values pass through the URL so the page stays shareable.

No JS? Fill the form by hand. The geolocation button needs JavaScript.